Temp
74 76 68 69 72 74 75 76 76 76 76 77 78 78 78 78 78 78 78 78 78 78 78 78 77 77 78 78 77 76 76 77 76 76 76 77 78 78 79 78 79 79 78
72 73 69 69 71 73 75 76 77 74 74 76 76 76 76 75 75 76 77 77 77 77 77 77 77 76 77 77 76 76 76 76 75 74 74 74 75 77 77 77 77 78 78
72 72 74 71 72 73 75 75 75 74 75 75 75 75 74 74 73 74 75 76 77 76 76 76 76 76 76 75 74 74 75 75 75 75 76 78 77 76 77 76 77 77 78
70 73 74 74 74 74 74 73 74 73 74 74 74 74 73 73 72 72 75 75 74 74 74 74 75 74 74 73 73 73 74 74 75 75 77 78 77 76 76 76 77 77 77
70 74 75 73 73 73 72 72 73 74 74 72 72 72 71 71 72 73 73 73 72 72 72 72 72 72 72 72 72 73 74 74 75 77 75 75 75 76 76 76 76 76 76
70 74 73 73 73 72 71 71 73 73 71 70 70 70 71 73 73 72 72 72 71 71 71 71 71 70 70 70 70 71 72 73 76 80 77 75 74 75 75 74 74 74 75
71 73 74 71 71 71 71 69 69 68 71 70 70 71 73 73 72 71 71 71 70 70 70 70 70 69 69 69 69 69 70 71 78 78 75 73 73 74 74 74 74 74 74
72 69 74 70 70 70 70 69 68 68 70 70 70 71 71 71 71 70 70 69 69 69 69 69 68 68 67 67 67 66 67 68 76 75 75 72 72 73 73 73 73 73 74
69 68 66 71 70 69 69 69 68 68 71 71 71 71 70 69 69 69 68 68 68 68 68 67 67 66 65 65 64 65 66 68 74 74 75 72 70 72 72 72 72 73 73
66 66 64 68 69 66 66 68 67 68 68 69 68 68 67 67 66 66 66 66 66 65 65 65 65 64 63 63 63 64 65 68 72 72 70 69 70 71 71 71 72 72 72
63 66 63 65 64 63 63 66 67 66 65 65 65 64 64 65 65 64 63 64 64 63 63 62 62 61 61 60 62 63 67 70 71 71 69 68 70 71 71 71 72 72 72
59 65 64 60 59 58 60 66 64 63 62 61 61 63 66 66 65 62 60 61 61 61 60 60 60 62 65 67 65 66 69 69 69 68 66 69 70 71 70 69 69 69 69
62 62 64 62 61 60 57 58 59 59 59 61 62 62 63 62 61 60 56 59 59 59 61 61 62 62 63 63 63 65 66 67 68 66 65 67 69 68 68 67 67 67 67
62 61 63 65 64 63 62 62 63 62 61 58 58 60 59 59 59 60 60 59 59 61 61 62 61 61 61 61 63 64 65 65 67 66 61 63 65 66 66 65 65 65 65
63 62 63 65 64 64 63 63 62 62 62 62 60 59 59 58 57 57 58 58 58 59 60 59 61 60 61 60 61 62 62 64 65 62 59 60 62 62 62 62 62 62 62
67 63 64 64 64 65 64 63 62 63 62 60 60 60 61 60 57 56 55 54 56 56 57 58 59 58 58 60 59 60 60 60 62 62 59 57 57 57 58 58 59 59 60
68 66 63 64 64 63 62 61 61 60 60 59 59 59 60 60 59 57 56 54 54 54 55 55 55 56 56 58 57 58 57 59 59 59 59 58 54 53 54 55 56 56 57
67 65 64 64 63 62 61 60 60 60 59 58 58 58 58 58 59 58 56 56 56 56 56 56 56 54 55 56 56 56 57 58 58 58 58 58 56 57 54 52 52 52 53
67 66 63 62 61 61 61 60 60 58 58 58 57 56 55 56 57 57 56 55 56 55 55 55 54 56 54 54 55 55 56 56 56 58 56 55 53 54 54 53 51 51 50
67 66 64 61 60 60 59 59 59 58 56 53 52 52 52 51 54 55 54 53 55 54 53 54 53 53 53 53 54 53 53 54 55 55 55 55 53 53 53 52 52 52 51
65 64 62 60 59 58 56 54 54 52 51 49 48 50 51 50 51 51 52 53 54 53 53 54 53 51 50 53 51 50 50 52 53 53 54 54 52 52 53 51 51 51 50
62 63 62 60 58 57 56 56 55 54 51 48 47 47 48 49 49 50 50 50 53 50 51 51 51 49 48 50 50 52 46 47 50 52 52 53 52 52 52 51 50 49 49
60 60 60 60 58 57 57 56 55 53 49 45 43 43 45 47 46 48 49 49 50 51 49 49 49 50 47 47 48 47 46 46 47 49 49 50 50 50 51 50 50 49 48
56 58 59 59 58 57 57 54 52 46 44 45 43 43 42 45 45 45 46 48 49 48 48 48 49 48 49 45 46 48 47 46 45 42 47 47 48 49 48 48 48 48 48
53 54 55 56 56 56 55 54 51 47 46 44 43 41 40 42 43 43 44 45 46 46 46 47 46 46 48 47 46 44 45 45 45 43 43 44 48 49 48 47 47 47 48
50 51 52 53 53 54 53 52 48 46 44 41 39 37 37 38 39 40 42 41 43 44 43 45 46 45 45 45 45 45 45 43 43 42 41 43 41 44 46 46 46 46 46
MSLP
1009.26 1009.51 1010.36 1010.35 1010.32 1010.30 1010.43 1010.45 1010.55 1010.74 1010.81 1010.80 1010.85 1011.09 1011.44 1011.86 1012.03 1012.03 1012.10 1012.03 1012.19 1012.17 1012.23 1012.33 1012.42 1012.57 1012.56 1012.82 1013.03 1013.22 1013.27 1013.32 1013.53 1013.63 1013.67 1013.69 1013.75 1013.83 1013.90 1013.81 1013.80 1014.14 1014.20
1009.62 1009.79 1010.14 1010.31 1010.40 1010.37 1010.33 1010.55 1010.60 1010.92 1011.13 1011.22 1011.31 1011.35 1011.77 1012.12 1012.22 1012.35 1012.37 1012.34 1012.54 1012.51 1012.61 1012.83 1012.79 1013.06 1013.08 1013.38 1013.59 1013.70 1013.77 1013.80 1013.89 1013.98 1014.09 1014.19 1014.27 1014.32 1014.34 1014.35 1014.46 1014.63 1014.62
1009.65 1009.78 1009.72 1010.01 1010.21 1010.45 1010.43 1010.71 1010.92 1011.13 1011.26 1011.45 1011.50 1011.57 1011.95 1012.28 1012.52 1012.54 1012.77 1012.80 1012.94 1013.07 1013.21 1013.28 1013.33 1013.50 1013.66 1014.03 1014.23 1014.22 1014.17 1014.12 1014.18 1014.17 1014.17 1014.41 1014.73 1014.79 1014.79 1014.83 1014.78 1014.82 1014.98
1009.82 1009.67 1009.58 1009.55 1009.85 1010.24 1010.57 1010.91 1011.06 1011.21 1011.37 1011.56 1011.78 1011.90 1012.21 1012.49 1012.71 1012.68 1013.16 1013.46 1013.63 1013.71 1013.81 1014.04 1013.94 1014.05 1014.31 1014.68 1014.82 1014.75 1014.68 1014.61 1014.57 1014.56 1014.74 1014.93 1015.15 1015.26 1015.33 1015.33 1015.24 1015.21 1015.34
1009.93 1009.65 1009.80 1009.94 1009.99 1010.35 1010.78 1010.72 1010.66 1010.94 1011.28 1011.72 1011.64 1012.22 1012.64 1012.64 1012.72 1013.31 1013.74 1014.26 1014.33 1014.50 1014.52 1014.61 1014.72 1014.80 1014.96 1015.26 1015.42 1015.24 1015.18 1014.97 1014.89 1015.06 1015.40 1015.68 1015.83 1016.00 1015.97 1015.97 1015.96 1015.91 1015.89
1010.04 1009.77 1010.24 1010.34 1010.53 1010.77 1011.01 1010.83 1010.67 1010.95 1011.21 1010.64 1011.74 1012.62 1012.64 1012.98 1013.59 1014.12 1014.50 1014.72 1014.95 1015.06 1015.05 1015.13 1015.36 1015.59 1015.69 1015.83 1015.99 1015.89 1015.79 1015.50 1015.10 1015.35 1015.90 1016.24 1016.54 1016.60 1016.56 1016.49 1016.52 1016.52 1016.46
1010.13 1010.15 1010.40 1010.75 1010.85 1010.89 1011.22 1010.88 1011.45 1011.58 1011.31 1011.89 1012.37 1013.34 1013.77 1014.04 1014.47 1014.78 1014.75 1015.28 1015.55 1015.48 1015.53 1015.60 1015.82 1016.05 1016.17 1016.31 1016.51 1016.44 1016.35 1016.08 1015.82 1015.99 1016.41 1016.87 1017.20 1017.22 1017.12 1017.08 1017.09 1017.03 1017.05
1010.30 1010.65 1010.48 1010.98 1011.14 1011.12 1011.45 1011.43 1011.53 1013.04 1012.30 1012.46 1013.10 1013.72 1014.32 1014.64 1015.26 1015.27 1015.58 1015.84 1015.89 1015.96 1015.96 1016.14 1016.37 1016.52 1016.67 1016.87 1016.92 1017.00 1016.96 1016.74 1016.40 1016.59 1016.81 1017.37 1017.71 1017.72 1017.66 1017.57 1017.51 1017.49 1017.46
1010.76 1011.06 1011.31 1011.12 1011.53 1011.59 1011.76 1012.23 1012.64 1013.13 1012.84 1013.14 1013.46 1013.92 1014.83 1015.36 1015.65 1015.66 1016.14 1016.28 1016.42 1016.44 1016.40 1016.81 1016.92 1016.90 1017.18 1017.44 1017.46 1017.38 1017.37 1017.15 1016.91 1017.09 1016.99 1017.64 1017.97 1017.95 1018.04 1017.99 1017.90 1017.92 1017.91
1011.03 1011.40 1011.83 1011.82 1011.98 1012.24 1012.28 1012.78 1013.25 1013.54 1013.93 1013.77 1014.88 1015.34 1015.65 1015.63 1015.79 1015.93 1016.63 1016.97 1016.96 1016.98 1017.13 1017.36 1017.53 1017.53 1017.76 1017.90 1017.99 1017.94 1017.75 1017.52 1017.55 1017.58 1018.00 1018.32 1018.29 1018.25 1018.28 1018.25 1018.20 1018.27 1018.31
1011.21 1011.37 1011.97 1012.20 1012.61 1012.58 1012.64 1013.24 1013.91 1014.25 1014.38 1014.70 1015.70 1016.13 1015.79 1015.92 1015.97 1016.85 1017.25 1017.42 1017.43 1017.61 1017.92 1017.96 1018.06 1018.19 1018.25 1018.27 1018.37 1018.18 1017.91 1017.90 1017.88 1018.05 1018.53 1018.80 1018.57 1018.48 1018.46 1018.41 1018.38 1018.41 1018.55
1011.09 1011.19 1011.87 1012.48 1012.94 1013.05 1012.79 1013.25 1014.15 1014.62 1015.00 1015.66 1016.00 1016.00 1015.80 1015.98 1016.60 1017.49 1017.84 1017.88 1018.19 1018.27 1018.40 1018.39 1018.31 1018.41 1018.01 1017.99 1018.27 1018.28 1018.35 1018.37 1018.34 1018.65 1019.07 1018.82 1018.62 1018.70 1018.88 1019.05 1019.06 1019.10 1019.32
1010.72 1011.32 1011.55 1012.28 1012.82 1013.17 1013.69 1013.61 1013.92 1014.70 1015.36 1015.98 1016.23 1016.42 1016.44 1017.05 1017.64 1018.10 1018.52 1018.41 1018.61 1018.67 1018.62 1018.55 1018.47 1018.54 1018.68 1018.58 1018.61 1018.84 1018.86 1018.67 1018.67 1019.15 1019.56 1019.17 1019.18 1019.46 1019.71 1019.86 1020.00 1020.04 1020.05
1009.97 1010.81 1011.34 1011.75 1012.41 1012.98 1013.67 1013.90 1014.32 1014.88 1015.62 1016.24 1016.62 1016.83 1016.94 1017.45 1017.64 1017.94 1018.22 1018.38 1018.48 1018.55 1018.69 1018.57 1018.79 1019.01 1019.15 1019.02 1019.12 1019.22 1019.25 1019.05 1019.09 1019.53 1020.35 1020.01 1020.07 1020.25 1020.38 1020.53 1020.63 1020.59 1020.62
1009.52 1010.33 1010.88 1011.44 1012.02 1012.48 1013.05 1013.78 1014.40 1014.87 1015.45 1015.96 1016.54 1016.87 1017.07 1017.31 1017.84 1018.02 1018.41 1018.55 1018.79 1018.81 1018.89 1019.08 1019.09 1019.32 1019.26 1019.45 1019.73 1019.69 1019.77 1019.53 1019.69 1020.23 1021.09 1021.01 1021.05 1021.15 1021.39 1021.48 1021.52 1021.44 1021.39
1008.98 1009.97 1010.79 1011.51 1011.96 1012.42 1012.98 1013.45 1014.16 1014.87 1015.49 1015.99 1016.30 1016.61 1016.87 1017.32 1017.84 1018.09 1018.69 1019.03 1018.94 1019.31 1019.35 1019.55 1019.47 1019.69 1019.77 1019.78 1020.05 1020.25 1020.38 1020.38 1020.39 1020.63 1021.45 1021.97 1022.02 1022.05 1022.04 1022.19 1022.11 1022.00 1021.95
1007.83 1009.13 1010.26 1011.13 1011.83 1012.39 1012.88 1013.62 1014.14 1014.65 1015.13 1015.59 1016.00 1016.58 1016.89 1017.26 1017.59 1018.06 1018.50 1018.74 1019.04 1019.39 1019.27 1019.76 1019.93 1019.86 1020.02 1020.18 1020.35 1020.65 1020.69 1020.84 1020.97 1021.17 1021.38 1021.96 1022.59 1022.68 1022.64 1022.63 1022.66 1022.59 1022.55
1007.34 1008.32 1009.65 1010.68 1011.31 1012.09 1012.86 1013.45 1014.01 1014.79 1015.15 1015.52 1016.10 1016.51 1017.01 1017.33 1017.54 1018.01 1018.38 1018.92 1019.00 1019.10 1019.38 1019.56 1019.66 1019.81 1020.16 1020.37 1020.51 1020.97 1021.04 1021.06 1021.27 1021.54 1021.73 1022.13 1022.38 1022.31 1022.66 1023.17 1023.12 1022.87 1022.96
1006.57 1007.46 1008.61 1009.94 1010.94 1011.77 1012.40 1013.19 1013.86 1014.69 1014.99 1015.61 1016.29 1016.66 1017.16 1017.49 1017.54 1017.83 1018.40 1019.16 1019.25 1019.28 1019.38 1019.58 1020.04 1020.03 1020.46 1020.61 1020.74 1020.95 1020.84 1021.13 1021.57 1021.64 1022.02 1022.52 1022.81 1022.73 1022.75 1022.83 1023.12 1023.13 1023.37
1006.43 1007.19 1008.36 1009.78 1010.85 1011.63 1012.32 1013.10 1013.70 1014.42 1015.09 1016.01 1016.66 1016.97 1017.31 1017.56 1017.76 1017.98 1018.44 1018.83 1019.13 1019.32 1019.55 1019.70 1020.10 1020.58 1020.65 1020.77 1021.00 1021.10 1021.28 1021.39 1021.60 1021.68 1022.09 1022.29 1022.72 1022.94 1022.95 1022.87 1022.85 1023.14 1023.35
1006.52 1007.13 1007.98 1009.07 1010.25 1011.22 1011.92 1012.60 1013.49 1014.34 1015.50 1016.34 1016.65 1016.83 1017.36 1017.90 1017.92 1018.19 1018.52 1018.81 1019.13 1019.35 1019.58 1019.85 1020.22 1020.58 1020.94 1021.02 1021.17 1021.56 1021.60 1021.70 1021.55 1021.72 1022.22 1022.32 1022.59 1022.84 1022.87 1022.99 1022.89 1023.27 1023.10
1006.77 1007.45 1008.11 1008.94 1009.87 1010.78 1011.68 1012.33 1012.96 1013.92 1015.28 1016.33 1016.85 1017.20 1017.62 1017.78 1018.10 1018.41 1018.64 1018.83 1019.00 1019.63 1019.88 1020.13 1020.13 1020.42 1020.84 1021.31 1020.99 1020.71 1021.15 1021.74 1021.68 1021.79 1021.97 1022.39 1022.63 1022.71 1022.75 1023.07 1022.99 1023.21 1023.16
1007.22 1007.71 1008.32 1009.04 1009.91 1010.67 1011.42 1012.13 1012.97 1014.03 1015.03 1016.09 1016.90 1017.48 1017.82 1018.09 1018.46 1018.44 1018.53 1018.81 1019.10 1019.43 1019.79 1020.04 1020.10 1020.43 1020.37 1021.40 1021.43 1021.24 1021.01 1020.70 1021.29 1021.82 1021.99 1022.44 1022.69 1022.95 1022.44 1023.32 1023.14 1023.14 1023.22
1008.04 1008.24 1008.61 1009.04 1010.01 1010.89 1011.48 1011.77 1012.31 1013.29 1014.31 1015.23 1016.21 1016.98 1017.57 1018.17 1018.60 1019.01 1019.14 1019.45 1019.39 1019.56 1019.81 1020.08 1020.30 1020.72 1020.69 1021.02 1021.59 1021.45 1021.56 1021.62 1021.14 1021.70 1021.92 1022.47 1022.52 1022.83 1022.83 1023.16 1023.12 1022.95 1023.11
1009.29 1009.13 1009.25 1009.38 1010.00 1010.90 1011.62 1012.13 1012.70 1013.40 1014.06 1014.86 1016.05 1016.93 1017.80 1018.48 1018.99 1019.35 1019.53 1019.50 1019.69 1019.85 1020.12 1020.66 1020.99 1021.04 1021.04 1020.90 1021.25 1021.68 1021.89 1021.95 1021.98 1021.54 1021.33 1021.87 1022.14 1022.48 1022.72 1022.96 1022.93 1022.90 1023.00
1010.36 1010.18 1010.04 1010.11 1010.34 1010.90 1011.54 1012.20 1013.09 1013.61 1014.10 1014.86 1015.91 1016.88 1017.88 1018.49 1018.97 1019.36 1019.62 1019.89 1020.16 1020.38 1020.77 1021.09 1021.29 1021.43 1021.47 1021.54 1021.93 1021.86 1022.11 1021.98 1022.08 1022.12 1022.31 1022.23 1022.37 1022.61 1022.73 1022.85 1022.89 1022.88 1022.96
Wind_Speed
5 4 2 3 5 5 6 7 10 10 11 11 14 15 17 15 14 12 13 15 15 15 16 15 15 16 19 19 19 18 17 18 17 17 15 15 16 16 16 13 15 15 17
2 2 1 6 7 8 9 9 9 9 11 13 14 14 14 12 11 11 13 17 16 16 16 15 16 17 20 18 18 18 16 16 15 16 15 14 13 16 16 16 15 15 17
3 1 3 7 11 11 10 9 8 8 11 13 15 17 17 17 15 15 16 18 16 17 16 16 16 18 19 18 17 15 14 11 8 5 12 12 13 16 15 15 14 16 16
2 1 3 1 11 10 6 6 7 10 13 15 16 17 19 19 18 17 17 18 17 17 17 15 17 18 19 17 16 15 12 10 13 16 11 11 13 18 18 19 18 16 16
2 2 10 12 12 12 6 4 15 14 13 12 18 19 18 18 20 19 17 16 16 16 16 15 17 18 18 15 15 15 12 10 12 14 12 10 8 13 17 17 16 18 18
3 3 10 14 16 14 13 22 10 18 17 21 22 20 18 18 18 17 16 15 14 15 15 16 16 16 15 15 15 14 11 10 8 12 11 11 10 12 14 15 15 15 16
5 4 9 10 14 17 18 24 20 16 25 26 22 18 17 17 16 16 17 14 13 14 15 15 16 15 15 15 14 14 13 11 10 10 10 9 9 12 13 13 13 13 13
6 5 9 10 15 17 18 23 22 14 17 23 21 19 16 16 15 16 15 14 13 14 14 15 14 15 15 14 15 14 12 11 9 9 10 9 10 11 11 11 12 12 13
5 5 6 9 13 17 18 20 20 15 16 17 17 19 17 17 15 16 14 13 13 13 14 13 14 15 14 13 14 14 13 12 9 6 8 7 10 11 11 11 11 12 13
5 6 7 7 9 10 10 18 16 18 17 19 15 16 16 17 16 16 13 12 13 13 13 13 13 14 14 14 13 10 6 5 8 7 7 6 8 10 10 10 11 12 12
4 9 7 9 7 8 10 12 17 19 19 19 15 15 12 7 11 10 11 12 12 13 12 12 13 13 13 14 11 8 6 5 7 6 6 6 8 9 12 13 13 14 14
11 10 10 8 8 6 5 12 9 10 7 7 8 4 5 8 9 9 10 12 11 12 11 11 11 6 6 5 5 4 4 6 6 7 5 3 10 15 13 14 14 14 14
15 9 13 12 10 9 5 5 5 5 5 3 8 5 7 7 8 6 4 5 5 4 3 4 5 6 6 5 4 5 5 5 5 6 8 12 15 15 14 14 12 12 12
17 14 13 14 13 12 7 6 7 6 6 5 4 5 7 5 5 5 3 4 3 2 4 4 4 5 6 7 6 6 6 5 4 6 10 17 16 14 12 13 12 13 13
17 15 15 15 14 13 12 8 6 5 6 7 7 7 6 5 5 5 4 4 4 3 4 4 4 4 6 7 6 6 6 7 6 7 5 15 13 15 14 12 12 11 11
16 17 16 16 14 13 10 11 8 8 7 6 6 6 7 6 5 5 5 4 5 4 4 3 4 4 5 5 6 6 6 6 6 8 7 8 14 14 13 13 12 12 12
16 16 16 16 14 15 13 11 8 7 7 6 6 7 7 7 7 5 4 4 4 4 5 4 3 4 3 4 5 5 4 6 5 5 5 6 8 12 13 12 11 12 12
16 18 18 15 16 15 13 10 8 8 8 8 6 7 8 8 9 7 5 5 5 4 3 3 3 3 3 3 4 3 4 4 5 5 4 4 3 4 8 10 9 12 12
18 18 18 18 18 15 14 10 10 11 8 7 7 6 8 8 8 7 6 5 6 5 4 4 3 3 3 3 4 3 3 4 4 3 5 5 4 4 3 5 6 7 9
16 17 16 15 16 16 10 9 8 8 7 6 6 6 7 4 6 6 6 5 5 5 5 4 5 4 3 3 3 4 3 3 3 4 4 3 4 2 4 4 3 4 5
13 16 18 17 16 12 10 10 9 9 8 6 5 9 10 6 4 5 5 7 5 4 5 5 4 6 4 1 3 3 3 3 4 4 4 3 3 1 1 3 3 3 3
11 13 16 17 17 14 9 8 8 9 7 7 6 5 6 8 6 5 6 5 7 5 6 5 5 4 3 1 3 1 3 3 4 4 3 3 2 1 1 2 3 4 3
5 9 11 15 16 15 13 9 8 8 8 6 6 6 7 8 6 4 4 5 6 5 5 4 3 4 4 3 2 2 1 1 4 3 4 4 3 2 2 3 2 2 3
2 3 8 11 12 13 14 12 15 10 10 6 7 6 6 6 6 4 5 5 6 4 6 5 4 3 2 4 3 2 2 3 2 4 3 4 1 3 2 2 3 2 2
7 2 4 8 11 12 11 12 10 10 7 9 9 11 8 7 6 5 4 4 5 3 4 5 5 4 1 3 1 2 1 1 0 2 1 5 4 3 1 2 2 2 2
9 6 0 5 8 11 11 11 11 10 10 9 9 9 7 6 5 6 5 4 4 4 4 3 3 4 3 3 3 2 0 0 1 1 2 2 4 3 2 3 3 2 2
Wind_Direction
160 120 126 271 245 261 221 217 199 201 194 170 153 146 143 152 146 135 122 109 97 92 90 91 98 99 99 90 87 88 89 90 89 83 73 77 81 78 70 61 76 73 72
148 202 153 250 239 252 221 221 215 199 183 161 155 146 138 132 123 116 118 104 94 86 83 78 93 99 94 92 90 86 88 90 93 99 95 78 73 80 75 74 74 78 74
147 175 207 226 237 237 233 214 223 193 179 167 155 143 133 123 112 111 104 95 91 85 82 72 84 89 91 86 86 84 83 73 78 113 92 86 77 75 80 77 84 84 79
91 230 52 23 217 221 223 241 224 212 177 165 148 132 116 112 106 96 87 85 86 87 85 76 84 89 87 85 83 81 76 53 75 69 69 69 62 62 67 67 66 76 77
119 162 92 88 100 118 81 32 194 202 186 162 127 106 109 103 92 91 91 88 87 90 92 85 82 82 86 89 84 82 69 40 92 78 69 64 63 55 61 60 59 58 62
106 104 115 99 98 95 81 54 163 143 119 116 83 90 85 90 100 102 100 96 96 97 99 95 94 93 93 89 84 77 55 13 63 98 98 74 61 68 64 61 60 61 60
134 111 133 119 107 99 87 85 70 59 105 103 109 106 105 104 102 103 97 99 101 97 95 94 92 91 88 84 78 71 49 25 82 79 76 72 64 64 66 66 63 62 62
141 37 129 116 115 105 103 97 99 85 92 106 112 111 105 106 109 104 103 103 97 97 93 92 93 87 83 79 74 66 42 6 79 76 80 72 57 58 61 64 64 65 68
131 101 36 120 113 120 109 105 103 106 100 94 102 113 118 117 109 102 102 101 98 95 91 91 90 87 80 75 71 69 55 23 67 57 63 62 53 59 55 58 61 63 65
158 125 101 102 108 99 107 117 121 122 116 103 105 110 112 110 101 93 96 101 98 92 94 96 91 86 83 75 69 65 61 28 77 74 59 57 58 65 66 67 67 65 64
190 144 126 120 111 110 114 116 132 131 116 111 117 120 106 102 96 85 97 97 95 99 101 96 91 90 95 81 67 61 36 60 62 59 60 51 73 80 81 78 79 75 71
179 174 145 135 122 98 111 119 107 109 107 111 128 133 112 111 104 102 99 98 98 94 91 90 89 85 66 69 85 67 72 83 72 70 44 100 95 75 72 62 56 56 60
179 177 166 155 149 138 112 100 118 116 103 132 150 143 117 113 132 126 137 133 126 139 110 102 74 60 63 67 62 73 73 74 86 84 30 55 79 75 66 63 59 57 56
183 178 175 172 168 164 152 151 148 144 143 150 151 136 142 138 140 144 137 116 118 89 91 75 85 89 80 68 70 81 80 83 85 89 53 59 65 73 75 68 61 56 52
192 182 180 179 177 173 167 163 154 150 168 160 156 165 141 136 141 121 124 112 99 99 84 81 82 91 84 80 82 81 82 92 91 87 71 67 81 68 61 58 53 49 46
193 194 184 184 183 174 176 164 167 156 165 155 151 152 151 139 137 125 129 118 108 96 91 71 84 88 90 87 86 89 97 92 93 107 110 79 75 69 61 49 46 40 34
196 189 185 186 182 176 176 171 165 164 155 155 149 151 149 154 142 142 130 124 118 115 117 127 115 108 96 107 106 94 85 97 97 107 111 124 109 75 60 51 44 37 25
192 192 184 186 184 179 177 173 165 163 164 156 156 158 159 151 147 144 137 132 131 119 113 122 122 89 70 118 123 116 117 106 102 104 114 117 83 95 92 49 44 37 24
193 190 182 183 186 183 174 170 168 167 165 157 160 156 159 155 149 142 137 142 147 126 115 116 75 78 133 130 124 114 108 117 115 128 115 110 94 68 59 67 50 52 24
194 192 183 184 183 179 167 166 163 164 142 147 160 151 136 140 154 139 139 131 134 131 122 123 112 79 56 98 125 120 119 118 148 157 141 131 114 85 56 37 17 22 36
193 194 188 184 183 176 173 170 169 168 164 162 154 154 156 155 140 138 144 143 146 138 127 126 120 129 98 41 146 141 144 167 170 165 180 169 141 155 47 26 31 4 3
199 202 190 187 184 182 177 178 169 160 169 154 143 143 151 153 147 153 149 148 139 137 139 151 160 134 108 88 272 311 181 182 218 198 187 213 214 215 313 15 5 11 3
207 202 202 190 188 184 183 169 166 139 130 146 154 153 166 160 158 148 145 150 147 145 140 137 143 196 135 126 79 296 211 234 147 151 203 212 217 245 15 347 352 19 359
12 195 208 196 193 189 190 179 174 164 164 176 161 147 142 152 150 149 158 153 153 138 146 137 143 148 222 154 142 85 52 352 274 169 170 191 204 268 357 318 341 360 7
19 38 234 202 197 192 195 192 183 180 170 146 151 147 148 152 153 143 152 143 132 116 118 142 148 152 147 140 174 155 110 59 331 292 187 157 189 139 299 305 324 317 357
28 29 237 209 210 201 198 195 191 192 156 145 147 148 154 150 146 133 117 103 104 96 114 122 102 127 117 102 112 95 201 319 119 335 295 323 331 318 330 321 296 318 342